Regional Weather Roundup
Issued by NWS

Home | Current Version | Previous Version | Text Only | Print | Product List | Glossary On
Versions: 1 2 3 4 5 6 7 8 9 10 11 12 13 14 15 16 17 18 19 20 21 22 23 24 25 26 27 28 29 30 31 32 33 34 35 36 37 38 39 40 41 42 43 44 45 46 47 48 49 50
000
ASUS45 KABQ 061410
RWRNM
WEATHER ROUNDUP FOR NEW MEXICO
NATIONAL WEATHER SERVICE ALBUQUERQUE NM
800 AM MDT WED MAY 06 2015

NOTE: "FAIR" MEANS FEW OR NO CLOUDS BELOW 12,000 FEET AGL WITH NO
       SIGNIFICANT WEATHER OR OBSTRUCTIONS TO VISION.

      THIS PRODUCT IS RELEASED AS TWO VERSIONS.  ONE VERSION NEAR
      THE TOP OF THE HOUR CONTAINING PRELIMINARY DATA FROM ALBUQUERQUE
      AND OTHER STATIONS.  A FINAL VERSION WITH ADDITIONAL DATA IS
      ISSUED ABOUT 10 MINUTES AFTER THE HOUR.

NMZ501-503-504-510>518-061500-
NORTHWEST PLATEAU/NORTHCENTRAL MOUNTAINS

CITY           SKY/WX    TMP DP  RH WIND       PRES   REMARKS
FARMINGTON     PTSUNNY   52  47  83 CALM      29.90S
LOS ALAMOS     CLOUDY    47  44  87 S6        29.97S
SANTA FE       CLOUDY    50  43  77 SW14      29.94S
TAOS           CLOUDY    46  36  66 SW15      29.95R
ANGEL FIRE     RAIN      42  38  87 SW10G18   29.93S

$$
NMZ402-403-502-505>509-061500-
WESTCENTRAL MOUNTAINS/SOUTHWEST MOUNTAINS

CITY           SKY/WX    TMP DP  RH WIND       PRES   REMARKS
GALLUP         CLOUDY    48  43  82 SW3       30.00R
GRANTS         PTSUNNY   52  43  71 NW12      30.01S
SILVER CITY      N/A     52  37  58 W3        30.02S

$$
NMZ407-409-411-412-061500-
SOUTHERN DESERTS

CITY           SKY/WX    TMP DP  RH WIND       PRES   REMARKS
LORDSBURG      FAIR      54  39  58 S6        29.97S
DEMING         SUNNY     54  41  61 CALM      29.97S
LAS CRUCES     SUNNY     60  41  49 W8        29.98S
HOLLOMAN AFB   MOSUNNY   62  39  43 S8        29.93S
ALAMOGORDO     MOSUNNY   59  39  47 SE7       29.95S
T OR C         PTSUNNY   59  38  45 SW6       29.96R

$$
NMZ519>523-061500-
CENTRAL VALLEYS/CENTRAL HIGHLANDS

CITY           SKY/WX    TMP DP  RH WIND       PRES   REMARKS
ALBUQUERQUE    PTSUNNY   54  45  71 S6        29.96R
DOUBLE EAGLE   PTSUNNY   54  45  71 SW12      29.96R
MORIARTY ARPT  FAIR      54  42  63 W15G22    29.97R
CLINES CORNERS MOSUNNY   49  42  77 W24       29.95R
BELEN          FAIR      58  40  51 SW9G16    29.95F
SOCORRO        FAIR      54  44  68 SE3       29.96R

$$
NMZ524>526-539-540-061500-
SOUTHCENTRAL MOUNTAINS

CITY           SKY/WX    TMP DP  RH WIND       PRES   REMARKS
RUIDOSO        SUNNY     50  36  57 E3        30.04R

$$
NMZ527>531-061500-
NORTHEAST HIGHLANDS/NORTHEAST PLAINS

CITY           SKY/WX    TMP DP  RH WIND       PRES   REMARKS
LAS VEGAS      MOSUNNY   50  40  68 S12       29.89S
RATON          CLOUDY    52  44  74 S9        29.81R
CLAYTON        SUNNY     56  44  64 SW21      29.75S

$$
NMZ532>537-061500-
EASTCENTRAL PLAINS

CITY           SKY/WX    TMP DP  RH WIND       PRES   REMARKS
TUCUMCARI      SUNNY     63  45  51 W25G37    29.78F
CANNON AFB     NOT AVBL
CLOVIS AIRPORT MOSUNNY   59  46  63 SW17      29.87S

$$
NMZ028-029-538-061500-
SOUTHEAST PLAINS

CITY           SKY/WX    TMP DP  RH WIND       PRES   REMARKS
ROSWELL        SUNNY     58  49  72 CALM      29.90R
ARTESIA        SUNNY     64  45  48 MISG      29.92R
CARLSBAD       SUNNY     69  44  40 SW12      29.89R
HOBBS          PTSUNNY   63  63 100 S14       29.93R


$$


USA.gov is the U.S. government's official web portal to all federal, state and local government web resources and services.